軌道要素
Epoch 2005 Aug. 18.0 TT = JDT 2453600.5
T 2005 Aug. 10.49764 TT Bell
q 4.0288628 (2000.0) P Q
n 0.06029556 Peri. 90.32580 +0.70143362 +0.71161659
a 6.4408891 Node 224.30813 -0.67454310 +0.64472272
e 0.3744865 Incl. 3.27529 -0.23017924 +0.27916742
P 16.3
From 187 observations 2005 May 12-2020 Apr. 27, mean residual 0".9.
|